Regional Weather Roundup
Issued by NWS

Home | Current Version | Previous Version | Text Only | Print | Product List | Glossary Off
Versions: 1 2 3 4 5 6 7 8 9 10 11 12 13 14 15 16 17 18 19 20 21 22 23 24 25 26 27 28 29 30 31 32 33 34 35 36 37 38 39 40 41 42 43 44 45 46 47 48 49 50

000
ASUS43 KDMX 281803
RWRIA

WEATHER ROUNDUP FOR IOWA
NATIONAL WEATHER SERVICE DES MOINES IA
100 PM CDT SUN AUG 28 2016

NOTE: "FAIR" INDICATES FEW OR NO CLOUDS BELOW 12,000 FEET WITH NO
SIGNIFICANT WEATHER AND/OR OBSTRUCTIONS TO VISIBILITY.

* - THESE STATIONS ARE NOT NWS STATIONS...THUS NOT UNDER NWS
QUALITY CONTROL.  THEY ALSO DO NOT REPORT WEATHER SUCH
AS PRECIPITATION OR FOG.

IAZ001>003-012>014-020>022-031>034-043>046-281900-
   NORTHWEST IOWA

CITY           SKY/WX    TMP DP  RH WIND       PRES   REMARKS
CARROLL *      SUNNY     86  73  66 SE9G17    30.13S HX  93
CHEROKEE *     CLOUDY    84  74  72 SE12      30.11F HX  92
DENISON *      HAZE      84  73  70 SE10      30.10S VSB 1/4 HX  91
LE MARS *      SUNNY     86  73  66 S13       30.10S HX  93
ORANGE CITY *  MOSUNNY   84  73  70 S7        30.11S HX  91
SHELDON *      SUNNY     82  75  78 S15       30.10S HX  89
SIOUX CITY     MOSUNNY   86  74  67 SE12      30.08F HX  94
6HR MIN TEMP:  64; 6HR MAX TEMP:  86;

SPENCER        MOSUNNY   84  72  67 SE12      30.13F HX  89
6HR MIN TEMP:  64; 6HR MAX TEMP:  84;

STORM LAKE *   CLOUDY    82  75  78 S9        30.14S HX  89
$$

IAZ055>058-069>071-079>083-090>094-281900-
   SOUTHWEST IOWA

CITY           SKY/WX    TMP DP  RH WIND       PRES   REMARKS
ATLANTIC *     MOSUNNY   86  73  66 S7G13     30.12F HX  93
AUDUBON *      MOSUNNY   88  75  66 S8        30.14S HX  97
CLARINDA *       N/A     88  75  66 MISG      30.14S HX  97
COUNCIL BLFS * MOSUNNY   84  73  70 SE7       30.11F HX  91
CRESTON *      MOSUNNY   84  73  70 S7        30.16F HX  91
HARLAN  *      SUNNY     86  75  70 SE9       30.15S HX  95
LAMONI         SUNNY     86  72  62 SE8       30.15F HX  92
6HR MIN TEMP:  69; 6HR MAX TEMP:  86;

RED OAK *      MOSUNNY   86  75  70 SE8       30.12S HX  95
SHENANDOAH *   SUNNY     88 -27   1 SE9       30.12S HX  82
$$

IAZ047>049-059>061-072>074-084-281900-
   CENTRAL IOWA

CITY           SKY/WX    TMP DP  RH WIND       PRES   REMARKS
AMES           MOSUNNY   84  76  76 S8        30.15S HX  93
6HR MIN TEMP:  60; 6HR MAX TEMP:  84;

ANKENY *         N/A    N/A N/A N/A MISG        N/A
BOONE *        MOSUNNY   84  73  70 SE9       30.15S HX  91
CHARITON *       N/A     84  73  70 MISG      30.14F HX  91
DES MOINES     CLOUDY    87  75  67 SE7       30.13F HX  96
6HR MIN TEMP:  69; 6HR MAX TEMP:  87;

GRINNELL*      SUNNY     84  72  67 SE9       30.17F HX  89
KNOXVILLE *    PTSUNNY   84  73  70 SE6       30.13F HX  91
MARSHALLTOWN   PTSUNNY   83  73  72 SE10      30.15F HX  89
6HR MIN TEMP:  63; 6HR MAX TEMP:  84;

NEWTON *       CLOUDY    84  75  74 SE8       30.15F HX  92
PERRY *          N/A     84  76  76 SE9       30.14F HX  94
$$

IAZ004>006-015-016-023>025-035-036-281900-
   NORTH CENTRAL IOWA

CITY           SKY/WX    TMP DP  RH WIND       PRES   REMARKS
ALGONA *       PTSUNNY   82  72  69 SE10      30.15F HX  87
ESTHERVILLE    MOSUNNY   80  73  79 SE13      30.14F HX  84
6HR MIN TEMP:  61; 6HR MAX TEMP:  81;

FORT DODGE *   PTSUNNY   82  72  69 SE8       30.15S HX  87
MASON CITY     MOSUNNY   79  70  74 SE8       30.18F HX  82
6HR MIN TEMP:  59; 6HR MAX TEMP:  81;

FOREST CITY *    N/A    N/A N/A N/A MISG        N/A
WEBSTER CITY * MOSUNNY   84  75  74 S9G16     30.14S HX  92
IOWA FALLS *     N/A     83  72  70 SE10      30.18S HX  88
$$

IAZ007>011-017>019-026>030-037>042-050>054-066-281900-
   NORTHEAST IOWA

CITY           SKY/WX    TMP DP  RH WIND       PRES   REMARKS
CEDAR RAPIDS   SUNNY     84  76  76 SE5       30.17S HX  93
6HR MIN TEMP:  65; 6HR MAX TEMP:  84;

CHARLES CITY * PTSUNNY   81  73  78 SE8       30.19F HX  85
CLINTON *      SUNNY     85  73  67 E3        30.18  HX  91
DECORAH *      MOSUNNY   79  70  73 SE7       30.20S HX  81
DUBUQUE        MOSUNNY   81  69  67 SE6       30.20F HX  84
6HR MIN TEMP:  67; 6HR MAX TEMP:  82;

MONTICELLO *   MOSUNNY   84  73  70 S8        30.18S HX  91
OELWEIN *      PTSUNNY   81  73  78 SE7       30.19S HX  85
WATERLOO       PTSUNNY   81  70  69 S6        30.16S HX  84
6HR MIN TEMP:  59; 6HR MAX TEMP:  82;

$$

IAZ064-065-067-068-078-281900-
   EAST CENTRAL IOWA

CITY           SKY/WX    TMP DP  RH WIND       PRES   REMARKS
DAVENPORT      MOSUNNY   87  74  64 SE6       30.18F HX  95
6HR MIN TEMP:  66; 6HR MAX TEMP:  87;

IOWA CITY      CLOUDY    83  73  72 NE3       30.17F HX  89
6HR MIN TEMP:  69; 6HR MAX TEMP:  85;

MT. PLEASANT * MOSUNNY   89  75  64 E6        30.16F HX  98
MUSCATINE *    MOSUNNY   88  73  62 VRB6      30.16F HX  96
QUAD CITIES    PTSUNNY   85  73  67 SE6       30.16F HX  91
6HR MIN TEMP:  70; 6HR MAX TEMP:  86;

$$

IAZ062-063-075>077-085>089-095>099-281900-
   SOUTHEAST IOWA

CITY           SKY/WX    TMP DP  RH WIND       PRES   REMARKS
BURLINGTON       N/A    N/A N/A N/A MISG      30.16F
6HR MIN TEMP:  71; 6HR MAX TEMP:  84;

FAIRFIELD *    MOSUNNY   86  73  66 SE6       30.15F HX  93
FORT MADISON *   N/A     86  77  74 SE5       30.17F HX  97
KEOKUK *       SUNNY     86  73  66 VRB6      30.15F HX  93
OSKALOOSA *    PTSUNNY   78  73  84 S8        30.16F HX  81
CENTERVILLE *    N/A     86  73  66 SE7       30.17F HX  93
OTTUMWA        PTSUNNY   85  73  67 SE8       30.15F HX  91
6HR MIN TEMP:  67; 6HR MAX TEMP:  86;

WASHINGTON *   PTSUNNY   86  75  70 S7        30.17F HX  95
$$

ABBREVIATIONS USED IN REMARKS
   TC - TEMPERATURES IN CELSIUS
  WCI - WIND CHILL INDEX
   HX - HEAT INDEX
  VSB - VISIBILITY
$$





USA.gov is the U.S. government's official web portal to all federal, state and local government web resources and services.